Location: Vesunti
(61.5000°N, 22.8333°E)
Time: 20:08:50
(UTC+00:00)

MSX - Pass Details

Date: 17 February 2020
Orbit: 894 x 906 km, 98.8° (Epoch: 03 April)

Event Time Altitude Azimuth Distance (km) Brightness Sun altitude
Rises 03:40:02 0° 19° (NNE) 3,532 7.3 -18.2°
Reaches altitude 10° 03:42:29 10° 16° (NNE) 2,587 6.5 -17.9°
Maximum altitude 03:48:05 55° 300° (WNW) 1,076 3.9 -17.2°
Enters shadow 03:52:02 20° 230° (SW) 1,977 5.1 -16.7°
